| time (UTC) | temp C | wind direction | speed KPH | gust KPH | rain 1hr cm | rain 24hr cm | rain mn cm | humidity % | barometer mb |
| 20260510093525 | 9 | 197 | 3.2 | 6.4 | 0.00 | 0.00 | 0.00 | 96 | 1017.2 |
| 20260510093040 | 9 | 131 | 3.2 | 6.4 | 0.00 | 0.00 | 0.00 | 97 | 1017.2 |
| 20260510092526 | 8 | 112 | 3.2 | 4.8 | 0.00 | 0.00 | 0.00 | 97 | 1017.2 |
| 20260510092026 | 8 | 125 | 3.2 | 4.8 | 0.00 | 0.00 | 0.00 | 97 | 1017.2 |
| 20260510091539 | 8 | 126 | 1.6 | 3.2 | 0.00 | 0.00 | 0.00 | 97 | 1017.3 |
| 20260510091025 | 8 | 140 | 0.0 | 3.2 | 0.00 | 0.00 | 0.00 | 97 | 1017.3 |
| 20260510090525 | 8 | 130 | 1.6 | 3.2 | 0.00 | 0.00 | 0.00 | 97 | 1017.2 |
| 20260510090039 | 8 | 128 | 0.0 | 3.2 | 0.00 | 0.00 | 0.00 | 97 | 1017.2 |
| 20260510085528 | 8 | 0 | 0.0 | 6.4 | 0.00 | 0.00 | 0.00 | 96 | 1017.3 |
| 20260510085022 | 8 | 112 | 3.2 | 6.4 | 0.00 | 0.00 | 0.00 | 97 | 1017.1 |
| 20260510084543 | 8 | 200 | 3.2 | 3.2 | 0.00 | 0.00 | 0.00 | 98 | 1017.1 |
| 20260510084023 | 8 | 161 | 0.0 | 3.2 | 0.00 | 0.00 | 0.00 | 98 | 1017.2 |
| 20260510083527 | 7 | 108 | 0.0 | 1.6 | 0.00 | 0.00 | 0.00 | 96 | 1017.1 |
| 20260510083041 | 7 | 0 | 0.0 | 3.2 | 0.00 | 0.00 | 0.00 | 96 | 1017.0 |
| 20260510082522 | 7 | 0 | 0.0 | 3.2 | 0.00 | 0.00 | 0.00 | 96 | 1017.0 |
| 20260510082022 | 7 | 108 | 1.6 | 1.6 | 0.00 | 0.00 | 0.00 | 96 | 1016.9 |
| 20260510081543 | 7 | 0 | 0.0 | 1.6 | 0.00 | 0.00 | 0.00 | 96 | 1016.9 |
| 20260510081022 | 7 | 134 | 0.0 | 1.6 | 0.00 | 0.00 | 0.00 | 95 | 1016.8 |
| 20260510080527 | 7 | 0 | 0.0 | 1.6 | 0.00 | 0.00 | 0.00 | 96 | 1016.9 |
| 20260510080042 | 7 | 0 | 0.0 | 1.6 | 0.00 | 0.00 | 0.00 | 96 | 1016.9 |
| 20260510075525 | 7 | 0 | 0.0 | 0.0 | 0.00 | 0.00 | 0.00 | 95 | 1016.8 |
| 20260510075023 | 8 | 0 | 0.0 | 1.6 | 0.00 | 0.00 | 0.00 | 95 | 1016.7 |
| 20260510074540 | 8 | 0 | 0.0 | 1.6 | 0.00 | 0.00 | 0.00 | 95 | 1016.7 |
| 20260510074024 | 8 | 134 | 1.6 | 3.2 | 0.00 | 0.00 | 0.00 | 96 | 1016.7 |
| 20260510073530 | 8 | 117 | 1.6 | 3.2 | 0.00 | 0.00 | 0.00 | 97 | 1016.7 |
| 20260510073044 | 8 | 109 | 0.0 | 1.6 | 0.00 | 0.00 | 0.00 | 95 | 1016.7 |
| 20260510072525 | 8 | 0 | 0.0 | 1.6 | 0.00 | 0.00 | 0.00 | 96 | 1016.7 |
| 20260510072024 | 8 | 109 | 0.0 | 0.0 | 0.00 | 0.00 | 0.00 | 96 | 1016.6 |
| 20260510071542 | 8 | 0 | 0.0 | 1.6 | 0.00 | 0.00 | 0.00 | 95 | 1016.6 |
| 20260510071024 | 8 | 0 | 0.0 | 1.6 | 0.00 | 0.00 | 0.00 | 95 | 1016.6 |
| 20260510070525 | 8 | 0 | 0.0 | 1.6 | 0.00 | 0.00 | 0.00 | 95 | 1016.6 |
| 20260510070044 | 8 | 0 | 0.0 | 1.6 | 0.00 | 0.00 | 0.00 | 95 | 1016.6 |
| 20260510065524 | 8 | 0 | 0.0 | 3.2 | 0.00 | 0.00 | 0.00 | 95 | 1016.5 |
| 20260510065023 | 8 | 0 | 0.0 | 3.2 | 0.00 | 0.00 | 0.00 | 95 | 1016.5 |
| 20260510064540 | 8 | 109 | 0.0 | 3.2 | 0.00 | 0.00 | 0.00 | 95 | 1016.5 |
| 20260510064023 | 8 | 0 | 0.0 | 1.6 | 0.00 | 0.00 | 0.00 | 95 | 1016.6 |
| 20260510063522 | 8 | 0 | 0.0 | 1.6 | 0.00 | 0.00 | 0.00 | 95 | 1016.6 |
| 20260510063041 | 8 | 19 | 0.0 | 0.0 | 0.00 | 0.00 | 0.00 | 95 | 1016.6 |
| 20260510062525 | 8 | 0 | 0.0 | 0.0 | 0.00 | 0.00 | 0.00 | 95 | 1016.6 |
| 20260510062025 | 8 | 19 | 0.0 | 0.0 | 0.00 | 0.00 | 0.00 | 94 | 1016.7 |
| 20260510061541 | 8 | 0 | 0.0 | 0.0 | 0.00 | 0.00 | 0.00 | 94 | 1016.6 |
| 20260510061025 | 8 | 0 | 0.0 | 0.0 | 0.00 | 0.00 | 0.00 | 93 | 1016.7 |
| 20260510060525 | 9 | 0 | 0.0 | 0.0 | 0.00 | 0.00 | 0.00 | 93 | 1016.7 |
| 20260510060047 | 9 | 0 | 0.0 | 0.0 | 0.00 | 0.00 | 0.00 | 93 | 1016.7 |
| 20260510055525 | 9 | 0 | 0.0 | 0.0 | 0.00 | 0.00 | 0.00 | 93 | 1016.7 |
| 20260510055024 | 10 | 0 | 0.0 | 0.0 | 0.00 | 0.00 | 0.00 | 93 | 1016.8 |
| 20260510054541 | 10 | 0 | 0.0 | 0.0 | 0.00 | 0.00 | 0.00 | 93 | 1016.8 |
| 20260510054023 | 10 | 0 | 0.0 | 1.6 | 0.00 | 0.00 | 0.00 | 93 | 1016.8 |
| 20260510053522 | 10 | 0 | 0.0 | 1.6 | 0.00 | 0.00 | 0.00 | 93 | 1016.7 |
| 20260510053042 | 10 | 0 | 0.0 | 1.6 | 0.00 | 0.00 | 0.00 | 93 | 1016.7 |
| 20260510052526 | 10 | 17 | 0.0 | 1.6 | 0.00 | 0.00 | 0.00 | 92 | 1016.7 |
| 20260510052025 | 10 | 0 | 0.0 | 0.0 | 0.00 | 0.00 | 0.00 | 91 | 1016.7 |
| 20260510051559 | 10 | 0 | 0.0 | 0.0 | 0.00 | 0.00 | 0.00 | 90 | 1016.6 |
| 20260510051024 | 10 | 0 | 0.0 | 0.0 | 0.00 | 0.00 | 0.00 | 90 | 1016.7 |
| 20260510050522 | 10 | 0 | 0.0 | 0.0 | 0.00 | 0.00 | 0.00 | 88 | 1016.6 |
| 20260510050042 | 10 | 0 | 0.0 | 0.0 | 0.00 | 0.00 | 0.00 | 88 | 1016.6 |
| 20260510045526 | 11 | 0 | 0.0 | 0.0 | 0.00 | 0.00 | 0.00 | 88 | 1016.6 |
| 20260510045025 | 11 | 0 | 0.0 | 0.0 | 0.00 | 0.00 | 0.00 | 88 | 1016.5 |
| 20260510044542 | 11 | 0 | 0.0 | 0.0 | 0.00 | 0.00 | 0.00 | 87 | 1016.5 |
| 20260510044027 | 12 | 0 | 0.0 | 0.0 | 0.00 | 0.00 | 0.00 | 87 | 1016.5 |
| 20260510043525 | 12 | 0 | 0.0 | 0.0 | 0.00 | 0.00 | 0.00 | 86 | 1016.6 |
| 20260510043102 | 12 | 0 | 0.0 | 0.0 | 0.00 | 0.00 | 0.00 | 85 | 1016.5 |
| 20260510042528 | 12 | 0 | 0.0 | 1.6 | 0.00 | 0.00 | 0.00 | 83 | 1016.4 |
| 20260510042027 | 12 | 0 | 0.0 | 1.6 | 0.00 | 0.00 | 0.00 | 84 | 1016.5 |
| 20260510041550 | 13 | 16 | 0.0 | 1.6 | 0.00 | 0.00 | 0.00 | 85 | 1016.4 |
| 20260510041028 | 13 | 0 | 0.0 | 1.6 | 0.00 | 0.00 | 0.00 | 84 | 1016.5 |
| 20260510040528 | 13 | 16 | 0.0 | 1.6 | 0.00 | 0.00 | 0.00 | 84 | 1016.3 |
| 20260510040043 | 13 | 0 | 0.0 | 1.6 | 0.00 | 0.00 | 0.00 | 83 | 1016.3 |
| 20260510035527 | 14 | 0 | 0.0 | 1.6 | 0.00 | 0.00 | 0.00 | 81 | 1016.3 |
| 20260510035029 | 14 | 0 | 0.0 | 1.6 | 0.00 | 0.00 | 0.00 | 80 | 1016.2 |
| 20260510034544 | 14 | 0 | 0.0 | 1.6 | 0.00 | 0.00 | 0.00 | 81 | 1016.3 |
| 20260510034028 | 15 | 0 | 0.0 | 0.0 | 0.00 | 0.00 | 0.00 | 80 | 1016.3 |
| 20260510033526 | 15 | 0 | 0.0 | 0.0 | 0.00 | 0.00 | 0.00 | 80 | 1016.4 |
| 20260510033042 | 15 | 0 | 0.0 | 0.0 | 0.00 | 0.00 | 0.00 | 76 | 1016.3 |
| 20260510032527 | 16 | 0 | 0.0 | 0.0 | 0.00 | 0.00 | 0.00 | 76 | 1016.4 |
| 20260510032026 | 16 | 0 | 0.0 | 0.0 | 0.00 | 0.00 | 0.00 | 76 | 1016.3 |
| 20260510031608 | 16 | 0 | 0.0 | 0.0 | 0.00 | 0.00 | 0.00 | 75 | 1016.2 |
| 20260510031027 | 17 | 0 | 0.0 | 0.0 | 0.00 | 0.00 | 0.00 | 73 | 1016.2 |
| 20260510030531 | 17 | 16 | 0.0 | 0.0 | 0.00 | 0.00 | 0.00 | 72 | 1016.2 |
| 20260510030040 | 17 | 0 | 0.0 | 0.0 | 0.00 | 0.00 | 0.00 | 71 | 1016.2 |
| 20260510025528 | 18 | 0 | 0.0 | 0.0 | 0.00 | 0.00 | 0.00 | 70 | 1016.2 |
| 20260510025030 | 18 | 0 | 0.0 | 0.0 | 0.00 | 0.00 | 0.00 | 68 | 1016.3 |
| 20260510024545 | 18 | 0 | 0.0 | 0.0 | 0.00 | 0.00 | 0.00 | 67 | 1016.1 |
| 20260510024026 | 19 | 0 | 0.0 | 0.0 | 0.00 | 0.00 | 0.00 | 62 | 1016.1 |
| 20260510023527 | 19 | 0 | 0.0 | 0.0 | 0.00 | 0.00 | 0.00 | 62 | 1016.1 |
| 20260510023051 | 20 | 0 | 0.0 | 1.6 | 0.00 | 0.00 | 0.00 | 62 | 1016.2 |
| 20260510022529 | 20 | 0 | 0.0 | 3.2 | 0.00 | 0.00 | 0.00 | 60 | 1016.3 |
| 20260510022028 | 20 | 16 | 0.0 | 3.2 | 0.00 | 0.00 | 0.00 | 57 | 1016.2 |
| 20260510021544 | 20 | 0 | 1.6 | 3.2 | 0.00 | 0.00 | 0.00 | 56 | 1016.3 |
| 20260510021026 | 20 | 40 | 0.0 | 3.2 | 0.00 | 0.00 | 0.00 | 57 | 1016.4 |
| 20260510020526 | 20 | 59 | 1.6 | 6.4 | 0.00 | 0.00 | 0.00 | 56 | 1016.3 |
| 20260510020042 | 20 | 0 | 1.6 | 8.0 | 0.00 | 0.00 | 0.00 | 57 | 1016.4 |
| 20260510015526 | 20 | 52 | 1.6 | 8.0 | 0.00 | 0.00 | 0.00 | 54 | 1016.5 |
| 20260510015026 | 20 | 15 | 3.2 | 8.0 | 0.00 | 0.00 | 0.00 | 56 | 1016.5 |
| 20260510014544 | 21 | 41 | 0.0 | 3.2 | 0.00 | 0.00 | 0.00 | 59 | 1016.6 |
| 20260510014026 | 21 | 35 | 0.0 | 3.2 | 0.00 | 0.00 | 0.00 | 56 | 1016.7 |
| 20260510013527 | 21 | 53 | 0.0 | 4.8 | 0.00 | 0.00 | 0.00 | 58 | 1016.8 |
| 20260510013043 | 21 | 0 | 1.6 | 8.0 | 0.00 | 0.00 | 0.00 | 58 | 1016.7 |
| 20260510012528 | 21 | 22 | 1.6 | 8.0 | 0.00 | 0.00 | 0.00 | 58 | 1016.8 |
| 20260510012027 | 20 | 347 | 3.2 | 6.4 | 0.00 | 0.00 | 0.00 | 57 | 1016.8 |
| 20260510011554 | 20 | 18 | 3.2 | 6.4 | 0.00 | 0.00 | 0.00 | 55 | 1017.0 |
| 20260510011030 | 21 | 322 | 1.6 | 6.4 | 0.00 | 0.00 | 0.00 | 56 | 1017.1 |
| 20260510010526 | 21 | 0 | 0.0 | 4.8 | 0.00 | 0.00 | 0.00 | 59 | 1017.1 |
| 20260510010050 | 21 | 323 | 1.6 | 11.3 | 0.00 | 0.00 | 0.00 | 56 | 1017.2 |
| 20260510005527 | 21 | 103 | 3.2 | 11.3 | 0.00 | 0.00 | 0.00 | 60 | 1017.1 |
| 20260510005026 | 21 | 17 | 0.0 | 8.0 | 0.00 | 0.00 | 0.00 | 60 | 1017.3 |
| 20260510004540 | 21 | 130 | 1.6 | 8.0 | 0.00 | 0.00 | 0.00 | 59 | 1017.3 |
| 20260510004030 | 21 | 92 | 1.6 | 12.9 | 0.00 | 0.00 | 0.00 | 59 | 1017.3 |
| 20260510003529 | 21 | 5 | 4.8 | 12.9 | 0.00 | 0.00 | 0.00 | 59 | 1017.4 |
| 20260510003041 | 21 | 338 | 4.8 | 12.9 | 0.00 | 0.00 | 0.00 | 58 | 1017.4 |
| 20260510002528 | 21 | 59 | 1.6 | 6.4 | 0.00 | 0.00 | 0.00 | 59 | 1017.4 |
| 20260510002029 | 21 | 46 | 3.2 | 12.9 | 0.00 | 0.00 | 0.00 | 60 | 1017.3 |
| 20260510001544 | 21 | 26 | 4.8 | 12.9 | 0.00 | 0.00 | 0.00 | 59 | 1017.5 |
| 20260510001026 | 21 | 78 | 4.8 | 12.9 | 0.00 | 0.00 | 0.00 | 58 | 1017.3 |
| 20260510000526 | 21 | 61 | 4.8 | 11.3 | 0.00 | 0.00 | 0.00 | 59 | 1017.4 |
| 20260510000049 | 21 | 30 | 3.2 | 14.5 | 0.00 | 0.00 | 0.00 | 59 | 1017.6 |
| 20260509235530 | 21 | 341 | 4.8 | 14.5 | 0.00 | 0.00 | 0.00 | 57 | 1017.6 |
| 20260509235027 | 21 | 17 | 6.4 | 14.5 | 0.00 | 0.00 | 0.00 | 57 | 1017.7 |
| 20260509234542 | 21 | 116 | 4.8 | 12.9 | 0.00 | 0.00 | 0.00 | 58 | 1017.6 |
| 20260509234029 | 21 | 110 | 3.2 | 12.9 | 0.00 | 0.00 | 0.00 | 59 | 1017.7 |
| 20260509233526 | 21 | 102 | 3.2 | 9.7 | 0.00 | 0.00 | 0.00 | 57 | 1017.7 |
| 20260509233041 | 21 | 54 | 1.6 | 6.4 | 0.00 | 0.00 | 0.00 | 60 | 1017.9 |
| 20260509232527 | 21 | 122 | 1.6 | 6.4 | 0.00 | 0.00 | 0.00 | 57 | 1017.9 |
| 20260509232028 | 21 | 121 | 3.2 | 11.3 | 0.00 | 0.00 | 0.00 | 60 | 1017.9 |
| 20260509231546 | 21 | 333 | 3.2 | 14.5 | 0.00 | 0.00 | 0.00 | 59 | 1017.9 |
| 20260509231026 | 21 | 327 | 6.4 | 14.5 | 0.00 | 0.00 | 0.00 | 58 | 1018.0 |
| 20260509230526 | 21 | 346 | 6.4 | 14.5 | 0.00 | 0.00 | 0.00 | 57 | 1018.2 |
| 20260509230042 | 21 | 13 | 0.0 | 14.5 | 0.00 | 0.00 | 0.00 | 59 | 1018.3 |
| 20260509225526 | 21 | 15 | 4.8 | 14.5 | 0.00 | 0.00 | 0.00 | 58 | 1018.3 |
| 20260509225024 | 21 | 34 | 4.8 | 14.5 | 0.00 | 0.00 | 0.00 | 57 | 1018.4 |
| 20260509224539 | 21 | 119 | 1.6 | 14.5 | 0.00 | 0.00 | 0.00 | 60 | 1018.4 |
| 20260509224025 | 21 | 17 | 6.4 | 16.1 | 0.00 | 0.00 | 0.00 | 59 | 1018.6 |
| 20260509223524 | 21 | 93 | 3.2 | 16.1 | 0.00 | 0.00 | 0.00 | 59 | 1018.4 |
| 20260509223044 | 21 | 50 | 6.4 | 16.1 | 0.00 | 0.00 | 0.00 | 59 | 1018.6 |
| 20260509222524 | 21 | 325 | 4.8 | 16.1 | 0.00 | 0.00 | 0.00 | 60 | 1018.5 |
| 20260509222024 | 21 | 355 | 1.6 | 14.5 | 0.00 | 0.00 | 0.00 | 61 | 1018.7 |
| 20260509221543 | 21 | 340 | 3.2 | 12.9 | 0.00 | 0.00 | 0.00 | 60 | 1018.7 |
| 20260509221025 | 21 | 327 | 8.0 | 16.1 | 0.00 | 0.00 | 0.00 | 58 | 1018.8 |
| 20260509220524 | 21 | 340 | 3.2 | 16.1 | 0.00 | 0.00 | 0.00 | 60 | 1018.9 |
| 20260509220046 | 21 | 17 | 3.2 | 16.1 | 0.00 | 0.00 | 0.00 | 60 | 1019.0 |
| 20260509215528 | 21 | 302 | 1.6 | 8.0 | 0.00 | 0.00 | 0.00 | 63 | 1019.1 |
| 20260509215025 | 21 | 20 | 3.2 | 12.9 | 0.00 | 0.00 | 0.00 | 59 | 1019.1 |
| 20260509214541 | 21 | 142 | 1.6 | 12.9 | 0.00 | 0.00 | 0.00 | 60 | 1019.1 |
| 20260509214024 | 20 | 46 | 3.2 | 8.0 | 0.00 | 0.00 | 0.00 | 62 | 1019.3 |
| 20260509213524 | 20 | 228 | 1.6 | 8.0 | 0.00 | 0.00 | 0.00 | 65 | 1019.4 |
| 20260509213057 | 20 | 308 | 3.2 | 14.5 | 0.00 | 0.00 | 0.00 | 60 | 1019.4 |
| 20260509212524 | 20 | 335 | 6.4 | 14.5 | 0.00 | 0.00 | 0.00 | 60 | 1019.5 |
| 20260509212025 | 20 | 327 | 4.8 | 9.7 | 0.00 | 0.00 | 0.00 | 62 | 1019.5 |
| 20260509211606 | 20 | 317 | 3.2 | 9.7 | 0.00 | 0.00 | 0.00 | 60 | 1019.6 |
| 20260509211024 | 20 | 344 | 1.6 | 6.4 | 0.00 | 0.00 | 0.00 | 60 | 1019.5 |
| 20260509210525 | 20 | 21 | 3.2 | 8.0 | 0.00 | 0.00 | 0.00 | 62 | 1019.5 |
| 20260509210048 | 20 | 313 | 4.8 | 8.0 | 0.00 | 0.00 | 0.00 | 62 | 1019.6 |
| 20260509205525 | 20 | 32 | 1.6 | 8.0 | 0.00 | 0.00 | 0.00 | 61 | 1019.6 |
| 20260509205025 | 19 | 0 | 0.0 | 8.0 | 0.00 | 0.00 | 0.00 | 64 | 1019.7 |
| 20260509204557 | 19 | 315 | 3.2 | 11.3 | 0.00 | 0.00 | 0.00 | 63 | 1019.8 |
| 20260509204028 | 19 | 348 | 4.8 | 11.3 | 0.00 | 0.00 | 0.00 | 63 | 1019.9 |
| 20260509203524 | 19 | 291 | 1.6 | 6.4 | 0.00 | 0.00 | 0.00 | 63 | 1020.0 |
| 20260509203049 | 19 | 185 | 3.2 | 11.3 | 0.00 | 0.00 | 0.00 | 63 | 1020.0 |
| 20260509202528 | 19 | 119 | 1.6 | 11.3 | 0.00 | 0.00 | 0.00 | 63 | 1019.9 |
| 20260509202025 | 19 | 28 | 3.2 | 9.7 | 0.00 | 0.00 | 0.00 | 66 | 1019.9 |
| 20260509201540 | 19 | 90 | 4.8 | 9.7 | 0.00 | 0.00 | 0.00 | 63 | 1019.9 |
| 20260509201028 | 19 | 171 | 3.2 | 11.3 | 0.00 | 0.00 | 0.00 | 66 | 1020.2 |
| 20260509200526 | 18 | 25 | 4.8 | 12.9 | 0.00 | 0.00 | 0.00 | 68 | 1020.2 |
| 20260509200041 | 18 | 12 | 4.8 | 12.9 | 0.00 | 0.00 | 0.00 | 66 | 1020.4 |
| 20260509195526 | 18 | 302 | 6.4 | 11.3 | 0.00 | 0.00 | 0.00 | 66 | 1020.4 |
| 20260509195026 | 18 | 288 | 3.2 | 12.9 | 0.00 | 0.00 | 0.00 | 66 | 1020.4 |
| 20260509194543 | 18 | 0 | 3.2 | 12.9 | 0.00 | 0.00 | 0.00 | 68 | 1020.4 |
| 20260509194026 | 18 | 40 | 6.4 | 12.9 | 0.00 | 0.00 | 0.00 | 68 | 1020.5 |
| 20260509193530 | 18 | 58 | 3.2 | 14.5 | 0.00 | 0.00 | 0.00 | 68 | 1020.4 |
| 20260509193045 | 18 | 219 | 0.0 | 14.5 | 0.00 | 0.00 | 0.00 | 70 | 1020.5 |
| 20260509192527 | 18 | 319 | 8.0 | 14.5 | 0.00 | 0.00 | 0.00 | 68 | 1020.6 |
| 20260509192027 | 18 | 307 | 1.6 | 12.9 | 0.00 | 0.00 | 0.00 | 67 | 1020.8 |
| 20260509191542 | 18 | 321 | 6.4 | 12.9 | 0.00 | 0.00 | 0.00 | 67 | 1020.8 |
| 20260509191030 | 18 | 321 | 6.4 | 17.7 | 0.00 | 0.00 | 0.00 | 69 | 1020.9 |
| 20260509190526 | 18 | 304 | 3.2 | 17.7 | 0.00 | 0.00 | 0.00 | 68 | 1020.9 |
| 20260509190047 | 18 | 26 | 8.0 | 17.7 | 0.00 | 0.00 | 0.00 | 68 | 1020.9 |
| 20260509185526 | 18 | 129 | 1.6 | 17.7 | 0.00 | 0.00 | 0.00 | 68 | 1020.9 |
| 20260509185026 | 17 | 22 | 6.4 | 17.7 | 0.00 | 0.00 | 0.00 | 70 | 1020.9 |
| 20260509184540 | 17 | 298 | 6.4 | 12.9 | 0.00 | 0.00 | 0.00 | 70 | 1021.0 |
| 20260509184027 | 18 | 331 | 3.2 | 9.7 | 0.00 | 0.00 | 0.00 | 70 | 1021.0 |
| 20260509183531 | 18 | 284 | 3.2 | 8.0 | 0.00 | 0.00 | 0.00 | 69 | 1021.0 |
| 20260509183041 | 17 | 89 | 1.6 | 9.7 | 0.00 | 0.00 | 0.00 | 72 | 1021.0 |
| 20260509182526 | 17 | 103 | 3.2 | 9.7 | 0.00 | 0.00 | 0.00 | 71 | 1021.1 |
| 20260509182026 | 17 | 306 | 1.6 | 11.3 | 0.00 | 0.00 | 0.00 | 72 | 1021.2 |
| 20260509181540 | 17 | 321 | 1.6 | 11.3 | 0.00 | 0.00 | 0.00 | 73 | 1021.0 |
| 20260509181027 | 17 | 300 | 0.0 | 11.3 | 0.00 | 0.00 | 0.00 | 74 | 1021.1 |
| 20260509180527 | 17 | 49 | 3.2 | 11.3 | 0.00 | 0.00 | 0.00 | 71 | 1021.3 |
| 20260509180040 | 17 | 313 | 0.0 | 8.0 | 0.00 | 0.00 | 0.00 | 74 | 1021.2 |
| 20260509175526 | 17 | 26 | 3.2 | 8.0 | 0.00 | 0.00 | 0.00 | 74 | 1021.1 |
| 20260509175026 | 16 | 89 | 3.2 | 16.1 | 0.00 | 0.00 | 0.00 | 75 | 1021.2 |
| 20260509174541 | 16 | 312 | 3.2 | 16.1 | 0.00 | 0.00 | 0.00 | 75 | 1021.3 |
| 20260509174030 | 16 | 15 | 6.4 | 14.5 | 0.00 | 0.00 | 0.00 | 77 | 1021.2 |
| 20260509173525 | 16 | 319 | 6.4 | 11.3 | 0.00 | 0.00 | 0.00 | 76 | 1021.4 |
| 20260509173041 | 15 | 32 | 4.8 | 11.3 | 0.00 | 0.00 | 0.00 | 78 | 1021.3 |
| 20260509172529 | 15 | 352 | 4.8 | 12.9 | 0.00 | 0.00 | 0.00 | 78 | 1021.5 |
| 20260509172025 | 15 | 322 | 6.4 | 12.9 | 0.00 | 0.00 | 0.00 | 80 | 1021.5 |
| 20260509171541 | 15 | 340 | 6.4 | 20.9 | 0.00 | 0.00 | 0.00 | 79 | 1021.5 |
| 20260509171026 | 15 | 315 | 4.8 | 20.9 | 0.00 | 0.00 | 0.00 | 80 | 1021.6 |
| 20260509170526 | 15 | 63 | 8.0 | 20.9 | 0.00 | 0.00 | 0.00 | 81 | 1021.7 |
| 20260509170041 | 15 | 194 | 1.6 | 8.0 | 0.00 | 0.00 | 0.00 | 82 | 1021.7 |
| 20260509165527 | 15 | 310 | 3.2 | 14.5 | 0.00 | 0.00 | 0.00 | 81 | 1021.7 |
| 20260509165026 | 14 | 38 | 6.4 | 14.5 | 0.00 | 0.00 | 0.00 | 82 | 1021.7 |
| 20260509164540 | 14 | 336 | 4.8 | 8.0 | 0.00 | 0.00 | 0.00 | 84 | 1021.7 |
| 20260509164027 | 14 | 318 | 3.2 | 11.3 | 0.00 | 0.00 | 0.00 | 83 | 1021.7 |
| 20260509163526 | 13 | 19 | 3.2 | 11.3 | 0.00 | 0.00 | 0.00 | 86 | 1021.8 |
| 20260509163050 | 13 | 306 | 6.4 | 11.3 | 0.00 | 0.00 | 0.00 | 85 | 1021.8 |
| 20260509162526 | 13 | 311 | 3.2 | 12.9 | 0.00 | 0.00 | 0.00 | 87 | 1021.9 |
| 20260509162026 | 13 | 278 | 3.2 | 12.9 | 0.00 | 0.00 | 0.00 | 88 | 1022.0 |
| 20260509161542 | 12 | 321 | 3.2 | 6.4 | 0.00 | 0.00 | 0.00 | 88 | 1022.1 |
| 20260509161031 | 12 | 317 | 1.6 | 8.0 | 0.00 | 0.00 | 0.00 | 89 | 1022.0 |
| 20260509160526 | 12 | 11 | 3.2 | 8.0 | 0.00 | 0.00 | 0.00 | 89 | 1022.1 |
| 20260509160041 | 12 | 23 | 1.6 | 8.0 | 0.00 | 0.00 | 0.00 | 90 | 1022.1 |
| 20260509155525 | 12 | 0 | 1.6 | 8.0 | 0.00 | 0.00 | 0.00 | 92 | 1022.1 |
| 20260509155029 | 12 | 352 | 3.2 | 8.0 | 0.00 | 0.00 | 0.00 | 92 | 1022.3 |
| 20260509154542 | 11 | 302 | 3.2 | 9.7 | 0.00 | 0.00 | 0.00 | 93 | 1022.4 |
| 20260509154026 | 11 | 299 | 3.2 | 11.3 | 0.00 | 0.00 | 0.00 | 94 | 1022.3 |
| 20260509153525 | 11 | 12 | 1.6 | 12.9 | 0.00 | 0.00 | 0.00 | 96 | 1022.4 |
| 20260509153038 | 11 | 338 | 4.8 | 12.9 | 0.00 | 0.00 | 0.00 | 96 | 1022.4 |
| 20260509152526 | 11 | 336 | 1.6 | 8.0 | 0.00 | 0.00 | 0.00 | 97 | 1022.4 |
| 20260509152027 | 10 | 34 | 3.2 | 8.0 | 0.00 | 0.00 | 0.00 | 97 | 1022.6 |
| 20260509151541 | 10 | 304 | 0.0 | 3.2 | 0.00 | 0.00 | 0.00 | 98 | 1022.7 |
| 20260509151026 | 10 | 284 | 1.6 | 3.2 | 0.00 | 0.00 | 0.00 | 98 | 1022.6 |
| 20260509150529 | 9 | 313 | 0.0 | 4.8 | 0.00 | 0.00 | 0.00 | 98 | 1022.8 |
| 20260509150049 | 9 | 313 | 1.6 | 4.8 | 0.00 | 0.00 | 0.00 | 97 | 1022.8 |
| 20260509145526 | 8 | 325 | 1.6 | 3.2 | 0.00 | 0.00 | 0.00 | 97 | 1022.7 |
| 20260509145026 | 8 | 0 | 0.0 | 0.0 | 0.00 | 0.00 | 0.00 | 98 | 1022.7 |
| 20260509144544 | 8 | 0 | 0.0 | 0.0 | 0.00 | 0.00 | 0.00 | 98 | 1022.7 |
| 20260509144026 | 8 | 0 | 0.0 | 0.0 | 0.00 | 0.00 | 0.00 | 97 | 1022.7 |
| 20260509143527 | 7 | 0 | 0.0 | 0.0 | 0.00 | 0.00 | 0.00 | 97 | 1022.8 |
| 20260509143045 | 7 | 0 | 0.0 | 0.0 | 0.00 | 0.00 | 0.00 | 97 | 1022.8 |
| 20260509142526 | 7 | 0 | 0.0 | 0.0 | 0.00 | 0.00 | 0.00 | 97 | 1022.7 |
| 20260509142026 | 7 | 299 | 0.0 | 0.0 | 0.00 | 0.00 | 0.00 | 97 | 1022.6 |
| 20260509141544 | 7 | 0 | 0.0 | 0.0 | 0.00 | 0.00 | 0.00 | 97 | 1022.7 |
| 20260509141026 | 7 | 299 | 0.0 | 0.0 | 0.00 | 0.00 | 0.00 | 98 | 1022.7 |
| 20260509140525 | 7 | 0 | 0.0 | 0.0 | 0.00 | 0.00 | 0.00 | 98 | 1022.6 |
| 20260509140051 | 6 | 0 | 0.0 | 3.2 | 0.00 | 0.00 | 0.00 | 98 | 1022.6 |
| 20260509135530 | 6 | 299 | 0.0 | 3.2 | 0.00 | 0.00 | 0.00 | 98 | 1022.6 |
| 20260509135026 | 5 | 299 | 0.0 | 3.2 | 0.00 | 0.00 | 0.00 | 97 | 1022.6 |
| 20260509134549 | 5 | 0 | 0.0 | 1.6 | 0.00 | 0.00 | 0.00 | 97 | 1022.4 |
| 20260509134026 | 5 | 35 | 0.0 | 1.6 | 0.00 | 0.00 | 0.00 | 97 | 1022.4 |
| 20260509133526 | 5 | 35 | 0.0 | 0.0 | 0.00 | 0.00 | 0.00 | 97 | 1022.4 |
| 20260509133053 | 5 | 0 | 0.0 | 0.0 | 0.00 | 0.00 | 0.00 | 97 | 1022.4 |
| 20260509132527 | 5 | 0 | 0.0 | 0.0 | 0.00 | 0.00 | 0.00 | 97 | 1022.3 |
| 20260509132026 | 5 | 0 | 0.0 | 0.0 | 0.00 | 0.00 | 0.00 | 96 | 1022.5 |
| 20260509131542 | 5 | 0 | 0.0 | 1.6 | 0.00 | 0.00 | 0.00 | 97 | 1022.3 |
| 20260509131026 | 5 | 0 | 0.0 | 1.6 | 0.00 | 0.00 | 0.00 | 97 | 1022.4 |
| 20260509130526 | 5 | 0 | 0.0 | 0.0 | 0.00 | 0.00 | 0.00 | 97 | 1022.5 |
| 20260509130046 | 5 | 0 | 0.0 | 0.0 | 0.00 | 0.00 | 0.00 | 97 | 1022.5 |
| 20260509125525 | 5 | 0 | 0.0 | 0.0 | 0.00 | 0.00 | 0.00 | 97 | 1022.6 |
| 20260509125025 | 5 | 0 | 0.0 | 0.0 | 0.00 | 0.00 | 0.00 | 97 | 1022.6 |
| 20260509124543 | 6 | 0 | 0.0 | 0.0 | 0.00 | 0.00 | 0.00 | 96 | 1022.7 |
| 20260509124026 | 6 | 0 | 0.0 | 1.6 | 0.00 | 0.00 | 0.00 | 97 | 1022.6 |
| 20260509123526 | 6 | 0 | 0.0 | 1.6 | 0.00 | 0.00 | 0.00 | 97 | 1022.5 |
| 20260509123041 | 6 | 0 | 0.0 | 1.6 | 0.00 | 0.00 | 0.00 | 97 | 1022.7 |
| 20260509122526 | 6 | 0 | 0.0 | 1.6 | 0.00 | 0.00 | 0.00 | 97 | 1022.6 |
| 20260509122025 | 6 | 0 | 0.0 | 1.6 | 0.00 | 0.00 | 0.00 | 97 | 1022.6 |
| 20260509121542 | 6 | 34 | 0.0 | 1.6 | 0.00 | 0.00 | 0.00 | 97 | 1022.6 |
| 20260509121025 | 6 | 0 | 0.0 | 1.6 | 0.00 | 0.00 | 0.00 | 97 | 1022.7 |
| 20260509120526 | 6 | 0 | 0.0 | 1.6 | 0.00 | 0.00 | 0.00 | 97 | 1022.7 |
| 20260509120044 | 6 | 0 | 0.0 | 1.6 | 0.00 | 0.00 | 0.00 | 97 | 1022.7 |
| 20260509115526 | 6 | 0 | 0.0 | 0.0 | 0.00 | 0.00 | 0.00 | 97 | 1022.7 |
| 20260509115026 | 6 | 0 | 0.0 | 0.0 | 0.00 | 0.00 | 0.00 | 97 | 1022.8 |
| 20260509114550 | 6 | 0 | 0.0 | 0.0 | 0.00 | 0.00 | 0.00 | 97 | 1022.8 |
| 20260509114030 | 6 | 0 | 0.0 | 0.0 | 0.00 | 0.00 | 0.00 | 97 | 1022.9 |
| 20260509113526 | 6 | 0 | 0.0 | 1.6 | 0.00 | 0.00 | 0.00 | 97 | 1022.9 |
| 20260509113044 | 6 | 0 | 0.0 | 1.6 | 0.00 | 0.00 | 0.00 | 97 | 1022.9 |
| 20260509112525 | 6 | 36 | 0.0 | 1.6 | 0.00 | 0.00 | 0.00 | 97 | 1023.0 |
| 20260509112025 | 6 | 311 | 0.0 | 1.6 | 0.00 | 0.00 | 0.00 | 97 | 1023.0 |
| 20260509111539 | 6 | 311 | 0.0 | 1.6 | 0.00 | 0.00 | 0.00 | 97 | 1023.2 |
| 20260509111025 | 6 | 0 | 0.0 | 0.0 | 0.00 | 0.00 | 0.00 | 97 | 1023.2 |
| 20260509110525 | 6 | 0 | 0.0 | 0.0 | 0.00 | 0.00 | 0.00 | 97 | 1023.1 |
| 20260509110041 | 6 | 0 | 0.0 | 0.0 | 0.00 | 0.00 | 0.00 | 97 | 1023.2 |
| 20260509105531 | 6 | 0 | 0.0 | 0.0 | 0.00 | 0.00 | 0.00 | 97 | 1023.2 |
| 20260509105026 | 6 | 0 | 0.0 | 1.6 | 0.00 | 0.00 | 0.00 | 97 | 1023.1 |
| 20260509104545 | 6 | 0 | 0.0 | 1.6 | 0.00 | 0.00 | 0.00 | 97 | 1023.2 |
| 20260509104024 | 6 | 312 | 0.0 | 0.0 | 0.00 | 0.00 | 0.00 | 97 | 1023.1 |
| 20260509103526 | 6 | 312 | 0.0 | 0.0 | 0.00 | 0.00 | 0.00 | 97 | 1023.1 |
| 20260509103042 | 6 | 0 | 0.0 | 0.0 | 0.00 | 0.00 | 0.00 | 97 | 1023.2 |
| 20260509102527 | 6 | 0 | 0.0 | 0.0 | 0.00 | 0.00 | 0.00 | 97 | 1023.2 |
| 20260509102026 | 6 | 312 | 0.0 | 0.0 | 0.00 | 0.00 | 0.00 | 97 | 1023.2 |
| 20260509101541 | 6 | 0 | 0.0 | 0.0 | 0.00 | 0.00 | 0.00 | 97 | 1023.2 |
| 20260509101025 | 6 | 0 | 0.0 | 0.0 | 0.00 | 0.00 | 0.00 | 97 | 1023.2 |
| 20260509100525 | 6 | 0 | 0.0 | 0.0 | 0.00 | 0.00 | 0.00 | 97 | 1023.3 |
| 20260509100041 | 6 | 0 | 0.0 | 0.0 | 0.00 | 0.00 | 0.00 | 97 | 1023.3 |
| 20260509095526 | 5 | 312 | 0.0 | 0.0 | 0.00 | 0.00 | 0.00 | 97 | 1023.3 |
| 20260509095026 | 5 | 0 | 0.0 | 0.0 | 0.00 | 0.00 | 0.00 | 96 | 1023.4 |
| 20260509094541 | 5 | 0 | 0.0 | 0.0 | 0.00 | 0.00 | 0.00 | 96 | 1023.4 |
| 20260509094025 | 5 | 0 | 0.0 | 0.0 | 0.00 | 0.00 | 0.00 | 96 | 1023.4 |